Flag for Honduras Weather past 2 weeks in Choloma, Honduras

Now
75 °F

Rain. Mostly cloudy.


Feels Like: 73 °F
Forecast: 71 / 78 °F
Wind: 6 mph from East

Location: La Mesa San Pedro Sula

Current Time: Oct 25, 2014 at 11:00:48 AM

Latest Report: Oct 25, 2014 at 10:00 AM


Visibility: 2 mi

Pressure: 30.04 "Hg

Humidity: 100%

Dew point: 75 °F

Location of CholomaLocation

Historic Weather in Choloma — Graph

°F

Choloma temperature yesterday

Maximum temperature yesterday: 90 °F (at 2:00 PM)
Minimum temperature yesterday: 75 °F (at 12:00 AM)
Average temperature yesterday: 81 °F

Past Weeks' High & Low Weather Summary

 TemperatureHumidityPressure
High95 °F (Oct 21, 2:00 PM)100% (Oct 10, 5:00 PM)30.01 "Hg (Oct 10, 5:00 PM)
Low73 °F (Oct 15, 10:00 PM)43% (Oct 19, 4:00 PM)29.65 "Hg (Oct 21, 3:00 PM)
Average81 °F86%29.85 "Hg
* Reported Oct 10 9:00 AM — Oct 25 9:00 AM, Choloma, Weather by CustomWeather, © 2014

Note: Actual official high and low records may vary slightly from our data, if they occured in-between our weather recording intervals... More about our weather records

Advertising

Choloma weather history for previous 24 hours

 ConditionsComfort  
Time TempWeatherWind HumidityBarometerVisibility
9:00 AM
Oct 25
75 °FLight rain. Mostly cloudy.6 mph100%30.01 "Hg2 mi
8:00 AM75 °FLight rain. Mostly cloudy.2 mph100%29.98 "Hg3 mi
7:00 AM75 °FLight rain. Mostly cloudy.2 mph100%29.95 "Hg4 mi
6:00 AM75 °FRain. More clouds than sun.5 mph100%29.92 "Hg4 mi
5:00 AM75 °FLight rain. Partly cloudy.5 mph100%29.92 "Hg4 mi
4:00 AM75 °FPassing clouds.2 mph100%29.89 "HgN/A
3:00 AM75 °FPartly cloudy.6 mph100%29.89 "HgN/A
11:00 PM
Oct 24
79 °FPassing clouds.6 mph89%29.89 "HgN/A
10:00 PM79 °FPassing clouds.6 mph84%29.89 "HgN/A
9:00 PM81 °FPassing clouds.6 mph84%29.89 "HgN/A
8:00 PM81 °FPassing clouds.3 mph84%29.86 "HgN/A
7:00 PM79 °FPassing clouds.No wind94%29.83 "HgN/A
6:00 PM79 °FPartly cloudy.3 mph94%29.80 "HgN/A
5:00 PM86 °FBroken clouds.3 mph75%29.80 "HgN/A
4:00 PM88 °FBroken clouds.5 mph66%29.77 "HgN/A
3:00 PM90 °FBroken clouds.5 mph63%29.77 "HgN/A
2:00 PM90 °FBroken clouds.7 mph67%29.80 "HgN/A
1:00 PM88 °FBroken clouds.5 mph70%29.83 "HgN/A
12:00 PM88 °FBroken clouds.5 mph62%29.86 "HgN/A
11:00 AM88 °FPartly sunny.9 mph66%29.89 "HgN/A
Weather by CustomWeather, © 2014

See weather overviewHow to use our weather pages